This is the latest recevied weather packets stored in our database for station/object KD9IXX-13. If no packets are shown the sender has not sent any weather packets the latest 10 day(s).
| Time | Temp. | Humidity | Pressure | Rain* | Wind** | Luminosity | Snow |
|---|---|---|---|---|---|---|---|
| 1777760702 | 12.22° C | 44% | 1018.6 hPa | 0 mm | - | 94 W/m² | - |
| 1777760402 | 12.22° C | 45% | 1018.7 hPa | 0 mm | - | 102 W/m² | - |
| 1777760102 | 13.33° C | 43% | 1018.7 hPa | 0 mm | - | 299 W/m² | - |
| 1777759802 | 13.33° C | 42% | 1018.5 hPa | 0 mm | - | 318 W/m² | - |
| 1777759502 | 13.33° C | 42% | 1018.6 hPa | 0 mm | - | 401 W/m² | - |
| 1777759202 | 12.78° C | 41% | 1018.5 hPa | 0 mm | - | 432 W/m² | - |
| 1777758902 | 12.78° C | 42% | 1018.6 hPa | 0 mm | - | 281 W/m² | - |
| 1777758602 | 12.22° C | 43% | 1018.7 hPa | 0 mm | - | 186 W/m² | - |
| 1777758302 | 13.33° C | 41% | 1018.7 hPa | 0 mm | - | 177 W/m² | - |
| 1777758002 | 12.22° C | 43% | 1018.9 hPa | 0 mm | - | 469 W/m² | - |
| 1777757702 | 12.78° C | 42% | 1018.8 hPa | 0 mm | - | 187 W/m² | - |
| 1777757402 | 12.78° C | 42% | 1018.5 hPa | 0 mm | - | 233 W/m² | - |
| 1777757102 | 12.22° C | 41% | 1018.7 hPa | 0 mm | - | 222 W/m² | - |
| 1777756802 | 13.33° C | 40% | 1018.8 hPa | 0 mm | - | 180 W/m² | - |
| 1777756501 | 12.78° C | 43% | 1018.7 hPa | 0 mm | - | 158 W/m² | - |
| 1777756202 | 14.44° C | 43% | 1019 hPa | 0 mm | - | 301 W/m² | - |
| 1777755902 | 13.89° C | 42% | 1019.1 hPa | 0 mm | - | 586 W/m² | - |
| 1777755602 | 12.78° C | 43% | 1019 hPa | 0 mm | - | 575 W/m² | - |
| 1777755302 | 12.78° C | 42% | 1018.9 hPa | 0 mm | - | 197 W/m² | - |
| 1777755002 | 13.33° C | 44% | 1018.8 hPa | 0 mm | - | 523 W/m² | - |
| 1777754702 | 13.33° C | 41% | 1019.1 hPa | 0 mm | - | 606 W/m² | - |
| 1777754403 | 12.78° C | 43% | 1019.1 hPa | 0 mm | - | 637 W/m² | - |
| 1777754102 | 12.22° C | 43% | 1019 hPa | 0 mm | - | 301 W/m² | - |
| 1777753802 | 12.22° C | 45% | 1019.2 hPa | 0 mm | - | 246 W/m² | - |
| 1777753502 | 12.78° C | 41% | 1019.2 hPa | 0 mm | - | 254 W/m² | - |
* Rain latest hour (hover to see other rain measurements)
** Current wind speed in m/s (hover to see current wind gust speed)